Weather Roundup
Issued by NWS Springfield, MO

Home | Current Version | Previous Version | Text Only | Print | Product List | Glossary On
Versions: 1 2 3 4 5 6 7 8 9 10 11 12 13 14 15 16 17 18 19 20 21 22 23 24 25 26 27 28 29 30 31 32 33 34 35 36 37 38 39 40 41 42 43 44 45 46 47 48 49 50
000
NZUS99 KSGF 261007
HRRSGF

HOURLY WEATHER
NATIONAL WEATHER SERVICE SPRINGFIELD MO
500 AM CDT MON JUN 26 2017

......SGF CWA......

CITY           SKY/WX    TMP DP  RH WIND       PRES   REMARKS
SPRINGFIELD    CLOUDY    62  57  83 NE7       30.26R
JOPLIN         CLOUDY    65  56  72 E6        30.24F
WEST PLAINS    CLOUDY    65  52  62 NW3       30.25R
ROLLA          CLEAR     54  49  83 CALM      30.22S
OSAGE BEACH    CLEAR     57  51  80 S5        30.25S
BRANSON          N/A     59  57  94 CALM      30.25R

......SURROUNDING SGF CWA......

CITY           SKY/WX    TMP DP  RH WIND       PRES   REMARKS
CHANUTE          N/A    N/A N/A N/A MISG      30.22F
PARSONS        CLOUDY    65  55  70 VRB3      30.22F
COFFEYVILLE    CLOUDY    66  57  72 E7        30.21F
EMPORIA        CLOUDY    60  59  96 S6        30.22F
GROVE OK       CLOUDY    66  61  82 CALM      30.23S
ROGERS AR      CLOUDY    67  60  78 E3        30.24S
SILOAM SPRINGS CLOUDY    66  59  77 CALM      30.23S
HARRISON AR    MOCLDY    63  61  93 W3        30.24S
NEAR YELLVILLE PTCLDY    64  57  77 CALM      30.20S

......KANSAS AND MISSOURI......

CITY           SKY/WX    TMP DP  RH WIND       PRES   REMARKS
KANSAS CTY INT CLEAR     56  55  97 S7        30.21F
DOWNTOWN KC    CLEAR     56  53  90 SW5       30.21F
COLUMBIA       CLEAR     52  50  93 SW3       30.22S
SEDALIA        CLEAR     54  53  97 SW8       30.24S
ST JOSEPH      CLEAR     53  53 100 S5        30.19F
ST LOUIS       PTCLDY    61  51  70 W3        30.22R
SPIRIT OF STL  CLEAR     53  51  93 CALM      30.21R
KIRKSVILLE     CLEAR     51  48  89 W5        30.22R
WICHITA        MOCLDY    62  54  74 NE5       30.21F
TOPEKA         CLEAR     53  53 100 CALM      30.19F
OLATHE           N/A     52  52 100 CALM      30.22F

......TENNESSEE......

CITY           SKY/WX    TMP DP  RH WIND       PRES   REMARKS
MEMPHIS        CLOUDY    67  61  81 CALM      30.18R
NASHVILLE      CLOUDY    64  57  78 CALM      30.18R

......ARKANSAS.......

CITY           SKY/WX    TMP DP  RH WIND       PRES   REMARKS
FAYETTEVILLE   CLOUDY    65  62  90 CALM      30.23S
FT SMITH       CLOUDY    71  63  75 NE5       30.19S
LITTLE ROCK    CLOUDY    67  64  90 SW3       30.19S

......OKLAHOMA.......

CITY           SKY/WX    TMP DP  RH WIND       PRES   REMARKS
TULSA          MOCLDY    69  61  75 CALM      30.18S
PONCA CITY     CLOUDY    68  56  65 E8        30.19F
MCALESTER      CLOUDY    71  61  70 SE3       30.19S
OKLAHOMA CITY  MOCLDY    67  55  65 CALM      30.19R

......IOWA............

CITY           SKY/WX    TMP DP  RH WIND       PRES   REMARKS
DES MOINES     LGT RAIN  58  50  75 N10       30.24R
QUAD CITIES    CLEAR     51  45  79 SW5       30.15S

......ILLINOIS........

CITY           SKY/WX    TMP DP  RH WIND       PRES   REMARKS
QUINCY         CLEAR     55  50  83 NW5       30.19R
CHICAGO        PTCLDY    54  48  80 W6        30.09S




USA.gov is the U.S. government's official web portal to all federal, state and local government web resources and services.